| time (UTC) | temp F | wind direction | speed MPH | gust MPH | rain 1hr in | rain 24hr in | rain mn in | humidity % | barometer mb |
| 20260506073005 | 64 | 69 | 4.0 | 10.0 | 0.00 | 0.00 | 0.00 | 76 | 1007.0 |
| 20260506071503 | 65 | 73 | 3.0 | 9.0 | 0.00 | 0.00 | 0.00 | 76 | 1006.9 |
| 20260506061552 | 67 | 61 | 3.0 | 6.0 | 0.00 | 0.00 | 0.00 | 69 | 1006.5 |
| 20260506050104 | 68 | 348 | 0.0 | 2.0 | 0.00 | 0.00 | 0.00 | 62 | 1006.3 |
| 20260506044544 | 69 | 348 | 0.0 | 2.0 | 0.00 | 0.00 | 0.00 | 59 | 1006.1 |
| 20260506043040 | 69 | 348 | 1.0 | 4.0 | 0.00 | 0.00 | 0.00 | 59 | 1006.0 |
| 20260506041555 | 70 | 355 | 0.0 | 2.0 | 0.00 | 0.00 | 0.00 | 57 | 1006.0 |
| 20260506040039 | 71 | 355 | 0.0 | 2.0 | 0.00 | 0.00 | 0.00 | 53 | 1005.8 |
| 20260506034549 | 72 | 355 | 1.0 | 4.0 | 0.00 | 0.00 | 0.00 | 51 | 1005.8 |
| 20260506033039 | 74 | 342 | 1.0 | 3.0 | 0.00 | 0.00 | 0.00 | 47 | 1005.8 |
| 20260506031536 | 76 | 342 | 0.0 | 1.0 | 0.00 | 0.00 | 0.00 | 41 | 1005.8 |
| 20260506030038 | 77 | 342 | 0.0 | 4.0 | 0.00 | 0.00 | 0.00 | 38 | 1005.4 |
| 20260506024536 | 75 | 314 | 1.0 | 3.0 | 0.00 | 0.00 | 0.00 | 44 | 1005.1 |
| 20260506023034 | 76 | 313 | 0.0 | 2.0 | 0.00 | 0.00 | 0.00 | 44 | 1005.1 |
| 20260506021534 | 78 | 313 | 1.0 | 2.0 | 0.00 | 0.00 | 0.00 | 39 | 1005.0 |
| 20260506020034 | 80 | 313 | 0.0 | 1.0 | 0.00 | 0.00 | 0.00 | 33 | 1004.9 |
| 20260506014534 | 82 | 313 | 1.0 | 5.0 | 0.00 | 0.00 | 0.00 | 31 | 1004.6 |
| 20260506013047 | 83 | 301 | 5.0 | 10.0 | 0.00 | 0.00 | 0.00 | 31 | 1004.4 |
| 20260506011540 | 82 | 298 | 3.0 | 5.0 | 0.00 | 0.00 | 0.00 | 35 | 1004.0 |
| 20260506010034 | 84 | 302 | 2.0 | 6.0 | 0.00 | 0.00 | 0.00 | 40 | 1004.1 |
| 20260506004531 | 86 | 266 | 2.0 | 6.0 | 0.00 | 0.00 | 0.00 | 34 | 1003.8 |
| 20260506003030 | 87 | 265 | 1.0 | 2.0 | 0.00 | 0.00 | 0.00 | 34 | 1003.6 |
| 20260506001530 | 87 | 266 | 2.0 | 7.0 | 0.00 | 0.00 | 0.00 | 33 | 1003.6 |
| 20260506000029 | 87 | 279 | 3.0 | 5.0 | 0.00 | 0.00 | 0.00 | 30 | 1003.5 |
| 20260505234531 | 88 | 259 | 3.0 | 7.0 | 0.00 | 0.00 | 0.00 | 27 | 1003.3 |
| 20260505233029 | 88 | 250 | 4.0 | 9.0 | 0.00 | 0.00 | 0.00 | 28 | 1003.4 |
| 20260505231528 | 89 | 275 | 5.0 | 9.0 | 0.00 | 0.00 | 0.00 | 26 | 1003.5 |
| 20260505230026 | 89 | 300 | 3.0 | 10.0 | 0.00 | 0.00 | 0.00 | 29 | 1003.5 |
| 20260505224524 | 88 | 291 | 3.0 | 9.0 | 0.00 | 0.00 | 0.00 | 28 | 1003.6 |
| 20260505223035 | 89 | 265 | 3.0 | 7.0 | 0.00 | 0.00 | 0.00 | 29 | 1003.5 |
| 20260505221525 | 89 | 288 | 4.0 | 8.0 | 0.00 | 0.00 | 0.00 | 29 | 1003.6 |
| 20260505220039 | 90 | 287 | 4.0 | 10.0 | 0.00 | 0.00 | 0.00 | 28 | 1003.6 |
| 20260505214528 | 90 | 263 | 6.0 | 13.0 | 0.00 | 0.00 | 0.00 | 25 | 1003.6 |
| 20260505213024 | 90 | 281 | 5.0 | 11.0 | 0.00 | 0.00 | 0.00 | 28 | 1003.7 |
| 20260505211521 | 90 | 309 | 5.0 | 11.0 | 0.00 | 0.00 | 0.00 | 30 | 1003.7 |
| 20260505210021 | 90 | 265 | 7.0 | 12.0 | 0.00 | 0.00 | 0.00 | 28 | 1003.9 |
| 20260505204518 | 90 | 279 | 8.0 | 13.0 | 0.00 | 0.00 | 0.00 | 27 | 1004.1 |
| 20260505203017 | 89 | 269 | 4.0 | 10.0 | 0.00 | 0.00 | 0.00 | 30 | 1004.2 |
| 20260505201516 | 89 | 252 | 4.0 | 10.0 | 0.00 | 0.00 | 0.00 | 28 | 1004.2 |
| 20260505200022 | 90 | 268 | 5.0 | 10.0 | 0.00 | 0.00 | 0.00 | 32 | 1004.4 |
| 20260505194514 | 89 | 297 | 5.0 | 11.0 | 0.00 | 0.00 | 0.00 | 30 | 1004.6 |
| 20260505193015 | 89 | 261 | 7.0 | 13.0 | 0.00 | 0.00 | 0.00 | 30 | 1004.5 |
| 20260505191523 | 89 | 263 | 5.0 | 12.0 | 0.00 | 0.00 | 0.00 | 33 | 1004.6 |
| 20260505190012 | 89 | 309 | 5.0 | 13.0 | 0.00 | 0.00 | 0.00 | 38 | 1004.9 |
| 20260505184506 | 87 | 270 | 6.0 | 10.0 | 0.00 | 0.00 | 0.00 | 37 | 1005.0 |
| 20260505183004 | 87 | 241 | 3.0 | 10.0 | 0.00 | 0.00 | 0.00 | 43 | 1005.0 |
| 20260505181600 | 86 | 293 | 4.0 | 10.0 | 0.00 | 0.00 | 0.00 | 49 | 1005.4 |
| 20260505180057 | 85 | 254 | 4.0 | 11.0 | 0.00 | 0.00 | 0.00 | 49 | 1005.5 |
| 20260505174602 | 84 | 279 | 4.0 | 9.0 | 0.00 | 0.00 | 0.00 | 55 | 1005.5 |
| 20260505173054 | 83 | 241 | 7.0 | 14.0 | 0.00 | 0.00 | 0.00 | 56 | 1005.7 |
| 20260505171547 | 82 | 215 | 7.0 | 10.0 | 0.00 | 0.00 | 0.00 | 59 | 1005.7 |
| 20260505170043 | 81 | 222 | 9.0 | 15.0 | 0.00 | 0.00 | 0.00 | 60 | 1005.7 |
| 20260505164542 | 80 | 221 | 6.0 | 14.0 | 0.00 | 0.00 | 0.00 | 64 | 1005.8 |
| 20260505163037 | 79 | 220 | 5.0 | 12.0 | 0.00 | 0.00 | 0.00 | 71 | 1005.8 |
| 20260505161542 | 77 | 252 | 7.0 | 12.0 | 0.00 | 0.00 | 0.00 | 71 | 1005.7 |
| 20260505153025 | 74 | 207 | 8.0 | 13.0 | 0.00 | 0.00 | 0.00 | 79 | 1005.6 |
| 20260505151523 | 74 | 200 | 6.0 | 12.0 | 0.00 | 0.00 | 0.00 | 80 | 1005.6 |
| 20260505124516 | 68 | 207 | 8.0 | 15.0 | 0.00 | 0.00 | 0.00 | 88 | 1004.9 |
| 20260505123009 | 67 | 211 | 6.0 | 14.0 | 0.00 | 0.00 | 0.00 | 87 | 1004.9 |
| 20260505121610 | 67 | 215 | 9.0 | 13.0 | 0.00 | 0.00 | 0.00 | 87 | 1004.8 |
| 20260505120007 | 67 | 236 | 8.0 | 15.0 | 0.00 | 0.00 | 0.00 | 87 | 1004.7 |
| 20260505114506 | 67 | 227 | 5.0 | 8.0 | 0.00 | 0.00 | 0.00 | 87 | 1004.5 |
| 20260505113005 | 67 | 212 | 5.0 | 10.0 | 0.00 | 0.00 | 0.00 | 87 | 1004.3 |
| 20260505111505 | 67 | 214 | 5.0 | 12.0 | 0.00 | 0.00 | 0.00 | 86 | 1004.1 |
| 20260505101600 | 67 | 211 | 7.0 | 13.0 | 0.00 | 0.00 | 0.00 | 84 | 1004.0 |
| 20260505100056 | 68 | 203 | 8.0 | 17.0 | 0.00 | 0.00 | 0.00 | 83 | 1003.8 |
| 20260505094609 | 68 | 207 | 9.0 | 16.0 | 0.00 | 0.00 | 0.00 | 82 | 1004.0 |
| 20260505093057 | 68 | 226 | 8.0 | 16.0 | 0.00 | 0.00 | 0.00 | 82 | 1003.8 |
| 20260505091554 | 68 | 208 | 7.0 | 16.0 | 0.00 | 0.00 | 0.00 | 81 | 1003.8 |
| 20260505090048 | 69 | 219 | 8.0 | 19.0 | 0.00 | 0.00 | 0.00 | 81 | 1004.1 |
| 20260505084553 | 69 | 216 | 8.0 | 16.0 | 0.00 | 0.00 | 0.00 | 81 | 1004.4 |
| 20260505083055 | 69 | 236 | 8.0 | 14.0 | 0.00 | 0.00 | 0.00 | 81 | 1004.2 |
| 20260505081550 | 69 | 195 | 8.0 | 13.0 | 0.00 | 0.00 | 0.00 | 80 | 1004.4 |